RH
9 26 33 36 38 39 40 39 51 50 48 54 42 37 41 40 36 41 47 46 52 53 50 57 58 63 66 69 86 87 81 86 92 90 84 88 85 71 57 56 53 51 56 57 67 67 78 97 95 90 88 92 91 90 88 89 91 88 86 82 87 85 82 85 84 88 82 79 79 83 89 90 92 90 89 89 88 88 91 91 93 95 93 93 96 95 92 93 94 95 95 95 92 91 92 94 96
15 34 35 37 38 41 45 40 53 52 50 56 40 37 41 36 32 39 47 47 53 54 53 56 59 65 69 71 72 74 83 77 71 81 75 74 79 68 55 54 51 50 54 55 64 67 78 97 97 92 90 93 94 94 92 91 91 91 88 83 89 85 85 88 84 87 89 85 76 80 86 86 89 89 89 89 88 87 89 91 92 94 96 94 93 95 91 92 94 94 96 94 92 90 89 90 96
22 40 37 38 38 40 45 43 54 53 51 53 47 43 38 34 32 44 52 49 51 50 51 50 52 57 61 68 68 72 82 69 57 64 63 65 66 58 54 52 49 50 52 54 61 67 82 98 99 94 92 95 96 97 94 91 91 91 88 85 88 86 90 91 85 87 90 89 81 80 80 82 87 87 86 89 91 88 85 87 94 96 96 96 93 94 93 93 92 93 94 92 90 87 84 91 99
29 39 35 39 43 43 46 50 52 51 51 48 52 46 38 46 47 53 54 50 47 43 47 47 50 45 48 64 66 74 78 64 55 57 58 57 53 52 53 48 48 50 50 53 58 70 89 100 100 97 96 97 96 97 95 93 92 88 89 90 90 87 88 89 87 88 89 90 88 85 80 78 83 88 87 90 92 88 84 84 93 97 97 98 95 94 93 93 90 92 93 90 88 83 85 96 100
30 32 32 38 49 50 48 51 49 50 49 41 48 46 45 57 57 54 48 46 42 42 47 47 57 48 44 53 52 67 71 61 55 52 54 51 50 51 49 47 48 49 49 53 58 74 95 100 100 100 99 99 98 97 97 98 96 92 93 96 95 90 88 88 89 89 89 91 90 90 88 78 78 85 84 85 86 86 85 82 88 96 99 99 97 94 91 91 90 93 94 91 89 89 93 98 98
28 31 33 36 44 47 53 57 50 49 45 37 42 45 52 56 52 50 44 45 43 45 49 46 54 52 53 50 44 53 50 53 53 49 50 48 48 48 48 47 48 50 51 53 59 73 93 101 99 100 100 99 100 99 99 99 97 95 96 97 96 92 93 93 91 92 92 93 92 91 92 86 81 83 83 83 84 85 86 86 91 98 99 96 95 93 92 94 93 96 96 94 94 97 98 94 94
29 38 40 41 42 41 54 60 48 45 43 39 38 38 46 51 48 48 47 50 51 48 49 49 46 51 60 50 46 47 39 44 46 47 47 45 47 46 48 48 49 52 52 54 59 70 86 99 100 100 100 100 100 100 100 100 99 98 98 98 98 96 97 99 97 98 97 96 96 94 94 93 91 90 90 90 90 92 93 95 96 99 97 94 95 92 93 96 95 97 94 94 95 96 96 91 90
31 42 45 46 49 47 51 51 42 42 42 38 40 38 39 46 46 46 48 49 51 47 49 50 43 53 60 49 54 49 39 41 41 47 44 44 46 44 49 49 49 51 53 55 58 66 80 95 100 100 100 100 100 100 100 100 100 100 99 100 100 100 99 100 100 100 100 100 99 98 99 97 96 96 97 98 99 99 98 97 95 97 97 94 93 91 93 95 95 96 93 93 94 94 89 82 80
30 41 45 44 48 51 52 47 38 37 39 36 40 42 39 44 43 43 45 44 46 44 45 45 43 57 60 53 58 47 41 42 39 45 42 45 46 44 50 50 50 51 54 55 56 62 74 90 97 100 100 100 100 99 101 100 100 100 100 100 98 99 100 100 100 100 100 100 100 100 100 99 98 97 97 98 99 99 98 97 96 97 95 93 91 87 87 90 96 95 91 92 93 91 80 67 64
31 39 41 43 48 50 48 43 36 35 37 34 38 41 41 43 41 43 45 44 46 45 43 41 44 53 57 58 55 44 42 40 38 42 42 45 46 45 48 50 51 51 53 55 57 60 71 86 91 96 97 97 99 98 100 99 98 98 97 96 94 94 97 99 99 100 100 99 100 100 100 99 99 97 96 95 93 93 95 95 94 93 92 92 91 90 84 81 89 93 90 89 89 83 68 61 58
33 38 35 39 45 46 39 31 32 36 35 34 39 38 40 42 41 44 46 45 43 43 40 40 49 50 52 55 49 42 39 37 37 40 41 43 45 44 46 51 51 51 54 53 58 60 67 82 87 91 90 90 93 91 92 91 91 91 91 90 88 90 93 96 95 96 96 96 96 98 101 100 100 100 99 98 96 95 97 94 89 90 91 88 87 91 89 82 81 87 90 88 88 78 66 66 61
35 40 37 38 35 32 29 25 28 36 36 35 40 37 39 40 41 47 47 45 41 41 36 36 47 46 51 55 46 39 34 34 34 36 40 41 41 43 47 52 52 52 54 54 58 61 65 78 86 88 86 84 84 83 82 82 82 82 83 85 84 85 87 89 89 88 89 89 89 92 97 98 99 100 100 100 100 100 100 98 93 91 91 92 91 91 93 90 83 85 89 89 89 82 74 69 58
30 34 36 40 32 26 27 28 26 34 39 37 40 35 34 31 35 43 39 37 38 40 34 29 34 38 47 48 40 34 31 32 31 32 37 38 39 42 47 51 55 54 53 57 60 63 68 76 83 84 81 81 80 77 75 74 74 72 72 73 75 78 80 82 82 81 81 83 83 84 88 91 93 95 97 98 100 99 100 100 99 97 95 97 97 95 94 94 91 90 92 93 94 88 82 70 61
30 29 32 39 35 29 28 30 24 29 39 37 32 26 25 23 25 31 29 30 32 33 30 24 26 36 45 42 39 33 28 29 28 31 35 37 39 42 46 49 57 57 53 57 58 61 65 67 71 71 68 67 68 63 60 59 55 53 54 51 50 57 65 70 73 72 73 75 77 78 80 83 86 88 90 93 96 98 100 100 99 100 99 98 99 98 96 96 97 97 96 98 98 95 92 81 73
31 30 36 40 35 31 28 31 25 27 39 36 28 22 23 22 22 25 25 30 31 25 26 25 24 32 38 37 38 32 26 27 26 30 34 35 37 41 44 46 54 57 51 49 51 51 48 45 47 48 44 41 41 39 35 33 28 27 30 27 25 30 37 44 50 52 54 58 64 68 70 74 77 81 84 86 88 90 94 97 99 100 99 98 98 99 98 98 98 99 99 98 98 97 97 92 87
26 31 41 43 38 34 28 28 25 28 38 35 28 24 26 24 22 26 25 26 29 25 25 27 26 28 31 31 32 27 24 26 25 30 32 34 36 38 41 44 49 51 42 36 37 37 33 32 31 30 27 25 24 24 20 15 13 13 14 14 13 14 15 18 23 27 30 33 36 39 44 49 53 61 69 74 79 82 85 88 92 96 98 99 99 97 96 98 99 100 99 98 98 98 98 98 95
27 34 41 42 39 34 26 22 25 30 33 31 29 27 29 27 24 24 23 23 27 27 27 27 25 25 27 27 26 23 23 24 24 27 28 30 34 36 37 40 43 43 33 25 26 28 29 30 31 28 25 24 22 21 20 15 15 15 14 14 14 10 9 9 10 13 15 15 15 15 17 20 22 27 33 39 50 60 70 77 81 85 89 94 98 97 94 95 97 99 100 99 100 100 100 100 99
30 37 38 37 33 29 24 21 23 26 28 29 29 27 27 28 26 23 23 26 27 27 27 25 24 24 23 23 23 22 22 22 23 24 24 26 29 32 32 32 33 32 26 21 22 25 28 29 32 33 32 31 25 22 22 20 21 20 18 18 17 13 12 11 9 9 9 9 9 8 8 8 8 8 9 11 16 22 34 47 59 69 77 83 89 91 92 93 94 98 99 98 99 100 100 100 100
30 36 37 33 27 23 21 19 19 21 25 26 24 24 25 26 24 21 25 27 26 28 27 25 24 23 21 21 21 20 20 20 21 21 21 22 23 25 25 26 25 24 23 21 21 23 27 29 30 33 35 35 29 27 27 24 24 24 20 20 19 16 17 15 11 11 10 9 10 10 10 9 8 7 7 7 7 7 9 14 23 35 49 63 73 79 84 87 89 93 95 96 97 99 100 100 100
27 31 36 30 23 21 19 17 17 19 21 22 21 21 23 23 21 20 26 29 29 30 28 26 26 24 21 20 20 19 18 18 18 18 18 18 18 19 20 21 21 21 22 22 21 22 26 28 29 31 33 32 30 30 30 28 26 25 23 22 21 18 18 16 14 13 12 12 12 15 15 12 12 10 9 8 7 7 7 6 7 9 17 29 44 56 66 75 81 85 88 90 94 97 99 100 100
23 28 32 24 21 22 20 18 17 17 18 20 21 22 24 24 23 22 25 31 35 32 27 25 24 22 20 19 18 18 17 17 16 16 15 15 16 17 19 20 21 21 22 22 22 21 24 27 29 31 31 30 30 29 28 29 29 28 27 26 24 20 19 17 16 15 14 14 14 16 17 15 15 14 13 11 9 8 7 7 7 7 6 9 17 26 37 49 61 71 79 83 86 91 95 99 100
22 25 24 19 21 24 22 19 18 16 17 20 21 23 25 24 28 28 27 33 37 31 26 23 20 19 18 17 16 16 16 17 16 16 15 15 15 16 18 20 21 22 22 22 23 22 22 25 27 29 29 28 29 28 27 29 29 30 32 30 28 26 25 22 18 16 16 15 15 16 15 16 16 15 17 16 14 12 10 9 8 8 7 7 7 10 16 23 33 47 61 72 78 83 87 92 97
22 19 15 19 22 22 24 22 20 17 17 21 22 23 24 27 32 33 33 36 34 28 24 22 19 17 16 16 16 16 16 17 16 17 17 16 17 17 19 21 22 23 22 22 22 22 22 23 26 27 27 28 27 28 29 29 29 31 32 31 30 30 29 27 24 21 20 18 17 17 16 16 16 16 16 17 18 16 15 13 10 9 8 8 7 7 9 11 16 24 36 51 63 71 78 84 90
23 20 14 22 23 21 24 22 19 17 18 20 20 22 24 28 33 34 36 35 30 26 23 20 18 17 16 16 16 17 16 17 17 18 18 18 18 19 20 21 23 23 23 23 22 22 22 22 24 25 26 28 28 28 29 29 29 30 31 30 30 28 28 29 29 26 23 22 21 19 19 19 18 18 17 17 18 17 16 15 12 11 10 9 9 7 7 7 9 13 18 27 40 53 64 72 80
22 21 16 25 24 19 21 19 18 18 19 20 22 26 27 29 32 35 36 33 28 25 22 19 17 17 16 17 18 18 18 18 19 19 19 19 19 20 21 21 22 23 23 23 23 22 22 22 23 24 25 27 29 28 28 28 28 29 30 30 29 27 27 27 29 28 24 22 21 21 21 22 22 22 23 23 22 20 19 17 14 12 12 12 13 13 11 9 7 7 10 12 20 33 47 60 68
20 16 15 26 25 19 19 18 18 19 19 21 26 31 31 28 30 36 35 30 27 23 20 18 17 17 16 17 18 19 20 20 20 21 21 20 20 21 21 22 22 23 23 23 23 22 22 22 22 24 24 25 28 28 28 28 28 27 29 30 28 27 27 26 27 28 26 21 19 20 20 20 21 21 25 28 26 26 24 22 19 15 13 13 18 24 22 21 17 9 8 9 10 14 25 42 52
17 14 14 20 22 20 19 18 18 19 20 21 27 31 30 25 28 38 36 28 25 22 20 19 17 18 17 17 17 18 19 19 20 21 22 22 22 22 22 23 24 24 24 24 23 23 23 23 23 24 24 24 25 28 29 29 28 28 29 30 28 27 27 27 26 27 27 24 20 20 19 19 19 19 22 26 25 25 26 25 24 18 14 13 20 28 29 37 36 22 14 11 10 10 10 18 29
15 15 16 17 18 19 19 19 19 19 20 20 24 28 26 26 32 39 35 28 24 21 20 19 18 18 18 19 18 19 19 19 20 21 23 24 24 24 23 23 24 25 25 25 25 24 24 23 24 25 25 25 25 27 29 29 29 29 29 29 28 28 27 28 28 27 27 26 23 21 21 20 19 19 19 23 24 24 25 25 24 19 14 16 24 29 31 41 45 31 25 21 17 15 10 9 12
14 16 20 18 17 18 18 19 19 19 21 19 22 28 30 33 38 37 31 27 23 20 20 19 19 19 19 20 19 20 20 21 23 22 23 24 26 26 25 25 25 26 26 26 27 26 25 24 25 25 26 27 27 27 28 30 31 31 31 30 29 29 28 28 28 28 26 26 24 22 23 21 20 20 19 22 23 23 25 25 25 21 15 18 28 33 33 39 41 27 23 29 29 28 24 23 26
16 16 18 19 21 21 18 18 20 19 20 19 21 34 42 41 38 33 29 26 22 21 20 19 19 19 19 20 21 22 23 24 25 25 25 25 26 27 27 27 27 28 27 27 28 29 27 25 25 26 27 29 29 29 29 29 31 33 33 33 32 30 30 30 29 29 27 26 25 23 24 24 21 21 20 21 22 21 23 25 25 22 17 20 28 33 34 37 39 27 20 27 33 39 44 48 54
18 20 21 21 27 26 17 16 20 20 20 18 22 36 43 42 38 33 29 24 22 22 21 20 19 19 20 21 22 24 24 26 26 26 26 26 26 27 28 28 28 29 28 27 29 29 30 29 27 26 26 28 31 31 31 31 30 31 33 34 34 33 32 31 31 30 30 28 27 25 25 26 24 23 23 22 23 21 22 25 25 21 17 20 26 31 36 36 37 32 24 27 31 37 48 54 58
18 29 34 28 28 28 20 16 18 20 21 18 23 37 41 41 38 32 28 23 22 22 21 21 19 18 20 21 22 23 24 25 26 26 27 28 28 29 29 30 30 29 28 27 28 29 31 33 31 30 28 29 32 32 32 31 29 29 30 30 31 32 32 32 32 31 31 30 29 27 26 28 26 24 24 23 24 22 22 25 25 23 18 18 23 29 37 38 37 37 31 31 34 39 46 45 47
21 29 36 31 28 30 26 20 17 18 22 20 22 35 42 41 37 31 28 24 21 21 21 20 20 19 19 21 22 23 25 26 26 27 28 30 30 31 31 31 31 30 30 28 27 28 31 34 34 32 32 30 31 33 32 31 30 29 28 28 28 29 30 31 31 31 32 31 30 29 28 29 28 26 26 24 24 23 23 25 25 25 21 19 21 26 35 38 36 40 37 32 36 44 45 39 46
27 27 29 27 23 30 32 24 19 17 23 24 21 33 42 39 37 33 29 25 22 22 22 20 20 20 18 19 21 22 25 27 26 26 27 30 30 31 33 33 32 32 32 31 29 28 30 33 33 33 32 31 31 33 34 33 33 33 31 29 28 28 28 29 30 30 30 31 32 31 29 30 29 27 27 25 25 24 23 24 24 27 25 22 22 25 34 37 34 37 38 33 35 43 42 39 50
29 30 30 28 20 23 31 28 22 20 28 28 25 37 45 39 37 35 31 28 24 22 21 21 20 19 19 18 19 21 23 25 26 26 27 29 30 32 35 35 34 33 32 32 32 30 30 32 33 32 32 32 34 35 36 35 35 36 34 32 31 30 30 30 30 29 30 31 32 33 31 32 31 29 28 27 27 25 24 24 24 27 28 25 24 25 33 38 35 34 34 32 33 38 37 41 50
27 30 30 35 30 26 28 26 23 24 32 31 28 39 44 41 40 36 33 30 26 24 22 22 21 19 19 19 19 20 21 23 25 26 28 30 31 33 35 36 36 34 32 33 35 33 31 32 32 32 32 34 36 38 38 37 37 38 38 38 36 35 35 33 32 31 32 32 32 34 34 34 33 31 30 30 29 27 26 25 24 27 29 27 25 25 32 38 37 33 31 29 31 36 32 37 46
25 31 32 34 34 33 28 26 27 29 35 35 32 39 42 40 40 36 35 33 29 26 24 23 22 20 20 20 20 20 20 23 25 27 29 31 33 34 34 35 35 34 32 33 35 33 33 35 34 33 34 36 39 41 41 40 40 40 42 43 41 40 40 38 36 35 36 35 34 35 36 37 36 33 33 33 33 29 28 26 25 27 29 29 27 26 31 36 36 33 26 22 28 36 35 35 39
28 32 36 33 31 33 29 27 31 33 39 40 35 39 42 40 39 36 35 36 34 28 25 25 22 21 22 20 21 21 22 27 29 29 31 33 35 35 36 36 34 33 32 32 34 33 34 37 36 36 39 39 42 44 45 44 43 43 44 45 43 42 40 39 38 37 37 37 35 34 36 38 39 37 36 36 36 32 30 27 26 27 27 28 28 27 31 34 36 33 25 22 26 33 36 35 35
34 34 35 35 34 36 35 32 31 29 36 40 37 40 42 38 37 37 36 37 35 29 26 26 23 22 22 21 23 22 24 31 32 30 32 33 34 35 36 37 35 32 30 30 33 34 35 36 37 41 44 43 44 46 48 47 45 45 45 43 42 41 40 39 39 37 37 36 35 35 35 38 40 40 39 39 38 35 33 29 27 27 26 27 28 28 31 34 37 35 27 27 28 31 35 33 30
39 39 35 36 40 42 43 40 32 27 33 37 37 43 45 40 38 38 35 34 33 30 29 28 26 25 22 21 23 22 23 31 34 30 31 32 33 35 35 36 34 30 30 31 32 34 33 35 40 45 48 47 47 48 48 48 47 46 44 42 41 40 40 40 39 38 37 35 35 35 36 36 37 39 40 42 41 38 36 33 31 29 26 28 29 30 32 34 38 37 31 30 31 35 41 36 27
39 39 36 34 37 41 42 41 34 32 37 39 39 47 50 46 46 43 37 35 34 33 32 33 31 28 26 24 24 24 23 30 34 29 28 29 30 33 35 34 33 31 32 34 33 33 34 39 45 48 49 49 47 48 48 48 47 45 43 42 42 41 41 40 39 37 35 35 35 35 35 35 36 38 39 41 42 41 38 36 35 33 30 30 32 32 32 34 37 38 36 32 31 37 45 44 31
35 39 40 30 29 38 42 40 37 38 42 41 41 47 51 49 47 46 42 40 40 40 40 39 37 34 32 29 25 25 26 28 30 26 25 27 26 30 32 32 33 32 32 33 33 36 41 45 48 48 48 46 45 46 47 48 47 45 44 44 43 43 43 41 39 37 36 36 36 35 34 33 35 38 39 39 41 43 41 38 38 36 34 34 35 35 33 36 38 37 39 35 31 35 40 47 40
34 44 47 33 29 39 43 42 40 39 42 42 39 42 50 51 46 43 45 46 44 45 46 43 39 37 37 35 29 26 26 25 27 25 23 24 24 26 28 29 31 31 33 36 38 43 46 46 46 46 45 43 45 46 46 46 45 44 45 44 44 43 43 41 39 37 36 36 36 35 34 32 32 33 35 35 36 41 44 41 39 40 39 37 37 38 35 38 39 37 40 38 36 37 36 45 45
37 46 45 35 31 37 41 44 42 35 39 45 41 39 44 47 46 44 46 49 47 48 49 45 41 39 38 38 34 30 28 26 29 28 24 23 23 23 25 27 28 33 39 43 43 45 44 44 44 45 44 44 45 45 45 45 44 44 44 42 42 41 40 39 37 35 34 35 36 37 37 36 34 33 33 32 32 36 41 42 41 43 44 41 40 42 38 40 42 36 36 38 40 39 34 43 44
42 43 41 35 34 37 36 38 38 31 37 45 44 45 45 45 47 47 46 48 50 50 49 46 42 40 39 38 37 35 32 29 28 29 27 23 21 23 25 25 30 40 46 45 44 43 42 44 46 45 45 44 44 44 44 43 43 43 42 40 40 39 39 37 36 35 34 36 38 39 40 39 39 38 37 37 36 36 38 42 44 46 47 44 43 43 40 42 43 39 37 38 42 39 33 41 43
44 40 39 39 37 37 36 36 32 29 37 41 40 44 44 43 48 48 47 46 48 48 46 45 43 40 40 39 37 35 33 33 31 28 26 24 23 24 24 26 37 47 48 45 44 43 43 46 47 46 44 44 43 43 43 44 44 44 42 41 41 40 38 37 36 36 38 41 42 41 41 41 40 41 41 41 41 40 39 42 46 48 48 46 46 43 41 42 42 42 43 42 45 43 37 40 41
43 41 41 41 37 34 33 30 25 35 47 38 31 34 32 38 45 42 42 40 41 45 44 43 43 39 39 40 40 39 37 39 40 34 30 27 26 25 25 32 44 50 48 45 45 43 43 46 47 45 43 43 44 44 45 46 46 44 42 41 40 39 37 35 36 40 43 45 43 42 43 43 43 43 43 43 43 44 45 46 47 48 49 49 48 45 42 42 41 41 44 44 45 45 41 41 41
41 39 35 34 32 27 27 26 29 45 50 31 22 26 25 32 38 32 34 36 36 41 40 39 40 39 43 48 47 46 44 43 45 45 42 37 33 30 32 39 47 49 47 46 47 45 45 46 46 45 44 44 45 46 47 47 46 43 41 39 38 37 35 36 41 46 47 44 44 45 47 47 47 47 46 47 49 51 53 54 52 52 53 52 50 47 46 44 41 41 43 45 44 42 41 40 41
36 32 28 32 34 33 36 40 44 47 41 26 21 24 26 30 32 28 29 33 35 38 38 38 40 43 50 52 51 53 52 50 51 52 52 49 43 39 42 46 47 47 46 46 47 47 47 46 46 45 45 45 46 47 47 46 44 41 39 38 37 36 37 43 49 50 47 46 47 50 52 52 52 51 51 52 55 57 58 58 57 56 57 58 56 52 49 47 47 47 47 49 47 42 41 40 41
31 25 24 33 37 39 42 42 43 44 36 26 22 27 33 33 33 31 29 31 33 34 36 37 39 44 47 49 53 58 58 56 58 58 58 57 49 44 47 47 46 46 45 45 46 47 47 47 46 46 47 46 46 46 45 44 43 40 39 38 37 38 43 49 52 50 48 49 50 52 53 53 53 54 55 55 57 58 60 61 60 59 60 62 64 62 57 54 54 55 55 55 53 48 44 42 43
29 20 21 30 32 35 43 43 44 48 39 28 27 33 38 38 40 41 39 40 40 37 38 39 39 41 42 46 54 59 60 60 62 63 62 58 51 49 50 47 47 47 45 45 46 46 47 48 48 48 47 46 45 44 44 43 42 39 38 38 38 41 47 50 50 49 50 50 51 52 52 51 51 53 55 55 56 57 60 62 63 64 65 66 68 69 68 65 63 64 63 60 58 55 49 44 44
23 14 18 27 27 26 36 38 36 38 36 33 34 36 39 45 47 46 46 48 45 42 42 41 40 41 43 50 53 55 58 60 63 65 62 56 52 51 50 47 46 47 45 45 45 46 48 49 50 49 47 46 45 44 43 43 41 38 38 38 40 45 48 48 48 49 50 50 50 51 50 48 48 50 52 52 53 54 57 59 60 64 67 70 70 70 73 75 73 72 71 65 59 55 50 45 44
22 15 21 29 28 23 28 32 27 30 36 34 29 32 39 42 43 44 47 48 46 45 44 41 40 43 46 50 51 51 53 55 59 62 58 53 50 49 49 47 47 47 46 46 46 47 49 51 51 49 47 45 44 44 43 42 39 38 38 39 42 46 46 46 48 49 49 48 48 47 45 44 45 47 49 48 49 51 52 53 55 59 63 67 70 71 73 76 80 80 78 70 60 54 51 48 46
25 23 28 31 32 26 24 30 33 39 42 31 24 30 35 33 39 49 50 48 48 46 42 40 40 43 45 48 49 48 49 50 52 53 52 49 47 47 47 46 46 47 46 46 47 48 49 51 50 48 46 44 44 44 43 41 38 36 38 40 42 43 43 47 49 49 48 47 45 44 43 43 45 47 49 49 49 49 50 51 53 56 59 62 66 72 74 75 78 83 83 76 65 57 55 54 52
27 28 26 25 35 36 31 31 36 42 42 30 24 30 31 29 42 56 52 46 47 43 40 39 39 40 42 45 46 43 43 46 48 49 50 48 46 45 44 44 45 45 45 46 47 48 50 51 49 46 45 44 43 43 41 38 35 35 37 40 41 41 42 47 50 48 46 45 43 43 44 45 48 50 51 51 51 50 51 53 54 55 58 60 64 69 74 75 76 78 81 80 73 64 57 56 56
24 26 22 18 24 32 35 34 32 37 41 35 32 35 30 24 35 51 50 43 42 40 38 37 36 38 40 41 42 39 41 45 46 47 48 46 44 42 43 43 44 44 44 46 47 48 51 50 47 45 43 42 42 41 39 35 34 35 38 40 42 42 43 46 49 48 45 43 43 43 44 47 49 50 50 50 51 51 52 53 54 56 57 59 62 66 70 74 76 77 78 78 75 69 63 59 60
24 26 26 23 21 24 31 34 34 38 38 36 37 36 26 19 29 42 42 38 37 36 36 35 34 35 36 37 38 38 40 43 44 45 45 42 39 38 40 42 43 45 45 46 48 50 51 48 46 43 42 41 41 39 36 34 34 36 39 42 43 44 44 44 46 47 44 43 43 43 46 49 51 51 50 49 49 51 53 53 54 54 55 57 61 66 70 72 75 78 79 78 75 71 66 64 64
26 24 25 25 27 30 33 38 44 44 40 37 39 39 27 18 25 34 35 34 33 32 34 34 33 33 32 33 33 35 38 40 42 43 43 40 36 34 39 42 43 44 46 47 49 49 48 45 43 42 40 40 40 37 35 34 36 38 41 43 44 44 45 45 46 47 47 46 45 46 49 52 53 52 49 49 50 52 53 54 55 56 57 59 62 65 70 71 71 75 78 81 80 74 69 68 67
Wind_Speed
14 12 13 12 10 10 8 4 3 3 3 5 6 5 1 5 6 8 8 7 5 6 8 9 10 9 7 9 13 13 11 7 4 1 2 2 3 6 18 18 18 15 15 15 15 19 21 21 21 22 22 22 22 22 23 23 24 24 24 23 23 22 21 21 21 19 18 16 15 14 13 13 13 13 13 13 14 14 15 15 15 13 12 12 11 12 12 11 10 10 10 12 12 12 12 11 12
13 12 12 11 9 7 3 3 3 3 4 5 5 3 3 3 3 7 7 8 7 7 9 11 13 14 16 16 13 11 11 7 7 3 3 6 4 7 21 18 17 15 15 14 14 19 20 20 20 20 20 21 21 21 22 24 25 25 24 23 23 23 23 24 23 21 20 18 16 14 14 14 14 13 13 13 13 14 14 14 15 15 13 11 10 10 9 9 8 9 9 10 11 11 12 11 11
12 11 12 11 7 6 3 2 4 4 4 5 1 1 3 1 3 11 11 12 12 11 11 10 12 8 9 11 7 7 6 5 9 4 4 11 4 11 21 17 16 14 14 14 13 18 19 19 20 19 19 20 21 22 23 23 23 24 24 23 24 24 24 25 25 23 22 20 17 16 15 13 13 14 14 14 14 14 13 14 14 13 13 11 9 7 7 7 7 7 7 8 9 10 11 10 10
11 10 11 9 4 4 3 3 4 4 5 4 1 1 0 5 9 13 12 11 11 9 8 7 7 6 6 11 7 7 7 4 9 6 3 10 9 13 17 15 15 14 14 14 13 19 19 18 19 18 19 20 21 22 23 23 23 24 24 24 25 26 25 26 26 24 22 20 17 16 16 13 12 14 15 15 14 14 14 14 14 12 12 10 8 6 5 6 7 7 6 6 7 9 10 10 10
11 12 11 8 3 1 2 3 4 5 5 3 0 1 4 11 11 12 11 9 8 7 6 5 5 4 9 9 3 4 3 1 8 9 4 6 11 12 14 13 14 14 15 14 13 19 21 19 18 18 19 20 21 22 23 23 24 24 25 26 26 26 26 25 26 25 21 18 15 14 15 13 11 13 15 15 16 16 15 14 13 8 8 8 5 4 6 6 7 7 6 6 5 7 8 8 9
12 13 12 8 3 1 2 3 4 5 4 4 1 3 7 10 10 12 12 9 7 7 8 6 7 8 7 6 6 6 3 1 4 8 5 7 11 11 13 13 13 15 15 14 13 19 22 19 18 19 19 20 21 22 23 23 24 25 25 25 25 25 25 25 27 26 22 19 16 15 14 14 12 12 14 14 14 14 13 11 9 4 3 4 2 4 6 6 6 7 7 7 6 7 7 6 7
10 8 6 6 3 2 3 4 5 4 2 5 2 3 8 10 10 12 11 9 7 8 9 7 10 11 6 4 6 9 8 7 4 5 6 7 10 11 13 13 14 15 15 15 13 17 23 21 19 19 19 20 22 23 23 23 24 24 25 25 25 25 24 25 29 29 28 24 20 18 17 16 14 12 12 13 13 13 11 8 5 4 3 5 6 5 6 6 6 6 6 6 6 7 6 6 7
8 5 1 3 3 2 4 5 6 3 1 2 6 4 8 12 9 10 10 8 7 7 8 8 10 10 6 4 5 6 9 9 6 5 7 8 10 11 13 14 14 16 15 16 14 15 22 23 20 20 21 22 23 23 23 24 25 25 25 26 26 27 26 27 30 31 32 30 27 25 22 21 21 19 18 17 17 16 14 11 10 9 8 8 9 8 7 7 7 7 6 6 6 6 7 7 9
7 4 1 2 3 3 4 5 6 2 4 4 7 6 8 10 8 9 8 8 9 8 7 8 9 7 8 10 7 4 6 7 6 7 8 9 11 11 13 15 15 16 16 16 16 15 20 22 20 20 22 23 24 24 25 26 27 27 26 27 28 28 28 28 29 31 32 32 31 30 27 26 26 24 21 19 18 17 17 15 14 13 12 11 12 11 9 8 9 8 6 6 6 7 8 9 10
4 4 1 2 2 3 5 5 5 3 7 5 7 6 6 6 6 7 7 10 11 9 9 9 12 10 10 10 5 3 4 5 5 7 9 9 11 12 12 15 16 16 16 17 17 16 18 21 21 22 22 24 26 26 26 27 28 28 29 30 30 29 29 29 29 30 30 31 32 31 31 29 28 27 24 21 18 18 19 17 16 16 15 14 14 13 11 10 9 8 6 5 4 5 6 9 12
2 3 1 1 3 3 5 5 4 4 8 7 7 5 4 4 6 7 8 11 10 9 7 8 12 12 11 7 3 4 6 6 7 7 8 9 12 14 13 15 16 16 17 17 18 18 18 20 23 22 23 25 27 28 29 30 31 31 30 30 31 31 30 31 30 30 30 30 31 31 30 30 29 30 29 27 25 23 22 19 17 16 16 15 14 12 11 10 9 8 6 4 5 5 6 13 15
2 2 2 2 4 4 5 5 2 5 7 6 7 4 3 4 4 8 11 10 9 11 8 8 6 10 9 6 4 7 9 8 6 6 6 8 12 13 13 15 17 17 18 18 19 19 19 21 23 24 24 26 28 31 33 34 36 35 34 32 33 33 31 31 31 31 29 28 30 29 28 28 27 28 30 31 30 28 25 23 20 17 17 16 15 13 11 9 9 9 7 5 5 7 10 15 14
3 2 2 3 4 5 6 5 3 3 5 5 8 5 3 5 4 6 12 10 8 9 7 10 1 8 8 6 6 7 9 8 5 5 5 7 10 11 13 15 18 19 20 21 22 22 21 23 25 26 27 28 29 32 34 36 37 37 37 36 36 35 34 33 33 33 30 29 30 30 29 27 26 25 26 28 29 27 24 24 24 23 21 18 17 16 12 11 9 8 7 6 7 8 11 12 10
3 2 2 3 3 5 5 4 5 2 3 6 8 7 8 8 8 7 11 12 11 6 5 11 6 7 9 7 5 4 6 6 4 4 4 8 10 12 14 16 19 21 21 22 24 24 24 25 26 27 29 30 30 32 34 35 36 37 37 39 41 39 37 36 36 36 35 33 33 34 33 31 31 29 27 28 28 27 25 23 24 25 25 23 22 19 15 14 11 9 8 7 8 8 8 9 12
2 3 2 3 4 5 4 3 5 3 3 7 7 9 12 9 9 10 9 10 9 7 4 11 11 3 5 4 4 4 4 5 4 5 7 10 12 13 14 16 18 21 22 22 23 24 26 27 27 28 29 31 31 32 34 35 37 39 39 41 43 41 40 39 39 39 38 38 36 36 37 36 37 35 33 32 30 29 29 27 25 25 25 24 23 21 18 16 14 11 10 9 8 7 8 10 13
2 3 2 3 4 5 4 5 5 2 3 7 8 10 13 11 11 10 9 8 9 10 8 10 11 6 7 7 7 5 4 4 4 7 9 11 13 13 14 15 16 18 21 22 22 23 25 26 27 28 30 31 31 33 35 37 39 40 40 42 43 43 42 42 41 40 40 40 40 39 39 39 39 38 37 36 35 34 33 30 28 27 25 23 21 20 18 18 18 15 13 11 7 7 9 12 13
1 2 3 3 4 4 4 3 3 4 6 8 8 8 11 9 10 10 12 14 13 12 12 10 11 11 10 10 8 7 7 6 7 8 9 11 13 14 14 15 15 16 18 21 22 22 23 24 26 28 30 32 32 33 35 37 39 39 40 41 42 43 43 43 43 42 41 42 42 41 41 42 42 41 40 39 38 36 35 33 30 29 27 25 22 21 19 18 19 17 16 15 12 11 12 12 12
0 3 3 3 5 3 5 6 3 6 9 8 8 10 12 10 9 9 10 15 14 13 13 12 13 13 12 12 10 10 10 11 11 12 12 12 13 14 14 14 15 15 16 19 20 20 21 23 24 25 27 29 31 33 34 35 36 37 38 38 40 41 42 44 44 44 44 43 43 43 44 44 44 43 42 41 40 38 36 35 34 33 31 29 26 24 22 20 19 18 17 17 16 15 14 14 14
2 3 2 4 4 1 5 7 6 4 8 9 8 12 12 11 10 7 8 11 12 13 11 10 12 12 12 12 12 12 13 14 14 15 15 14 14 14 13 14 15 15 16 17 19 19 20 21 23 24 24 25 28 31 32 33 34 34 36 37 38 40 40 42 44 45 45 44 43 43 44 44 44 43 42 42 42 41 39 38 36 35 34 33 31 28 26 24 22 20 19 17 16 14 14 14 14
3 3 3 4 3 3 5 7 7 5 8 11 10 11 11 8 5 6 12 12 11 10 8 8 11 10 10 11 12 14 14 15 15 16 16 16 15 15 14 14 14 15 15 16 18 20 20 20 21 23 24 24 25 27 28 30 32 33 35 35 37 38 39 41 43 45 45 44 43 42 42 42 43 43 43 43 42 42 42 41 40 38 37 35 34 33 31 29 27 24 23 21 19 18 16 14 13
2 2 4 4 5 4 6 9 6 4 7 12 10 10 10 8 7 5 12 10 8 7 7 9 10 10 10 10 12 13 14 15 15 16 16 16 16 16 15 15 15 15 15 16 19 20 20 20 21 22 23 24 24 25 27 26 28 31 32 32 34 36 38 39 42 43 43 43 42 41 40 41 42 42 42 43 43 43 43 43 43 41 39 37 36 35 34 33 31 30 28 26 24 24 22 19 17
1 2 6 6 5 3 6 8 5 4 6 12 10 8 7 5 10 9 7 8 6 6 8 9 9 10 10 10 12 13 14 14 15 16 15 16 16 16 16 15 15 15 16 18 19 20 20 20 20 21 21 23 23 23 24 25 27 28 29 29 30 32 33 36 39 41 42 42 42 41 40 41 41 41 41 42 43 43 43 43 43 42 40 40 37 35 34 33 33 32 31 30 28 27 25 23 21
2 3 6 5 4 3 6 5 4 4 5 11 8 8 7 8 11 11 12 11 7 8 8 9 9 10 12 12 12 11 12 14 14 15 15 16 16 16 15 14 14 14 16 17 18 19 19 20 20 20 20 21 21 21 23 25 26 26 26 27 28 29 29 31 34 36 38 39 41 40 40 40 41 41 41 40 40 41 41 41 42 42 41 39 37 36 34 33 32 31 31 30 30 29 28 26 23
2 4 5 3 5 4 5 4 4 6 8 10 9 9 8 9 9 8 12 10 8 9 9 9 10 12 13 12 11 11 12 14 15 15 16 16 16 16 15 15 14 14 16 16 17 18 19 19 18 19 19 20 20 21 22 23 24 25 25 26 27 27 28 28 29 31 34 36 37 38 38 37 38 39 39 38 38 38 38 39 41 41 41 39 36 35 35 33 32 31 30 29 29 29 29 28 26
3 5 3 2 4 5 5 5 8 10 10 9 11 11 9 12 11 9 10 8 8 9 8 9 11 12 12 10 11 11 13 14 15 15 16 16 16 15 15 14 14 15 15 15 16 17 17 17 18 18 19 19 19 20 22 23 24 24 25 26 26 26 27 27 26 28 32 34 35 36 36 35 36 37 36 34 34 35 35 36 38 39 40 39 36 35 35 33 32 31 30 29 29 28 27 27 27
3 5 2 3 4 5 6 6 8 9 7 9 13 12 11 13 11 10 7 7 8 8 8 8 9 10 9 9 10 11 12 13 14 14 15 15 15 15 15 14 14 15 14 14 14 15 15 17 18 18 17 18 18 20 21 21 23 24 24 24 25 25 25 25 25 26 28 33 35 35 34 34 34 34 33 32 32 32 32 33 34 37 38 37 34 33 34 32 32 32 31 30 29 28 27 26 26
2 3 2 2 4 5 5 7 8 7 7 9 12 10 10 8 2 4 5 7 8 8 9 8 8 9 8 8 9 11 12 12 13 14 14 13 13 14 14 14 14 14 13 13 13 13 14 15 17 17 17 16 16 18 19 19 20 22 23 23 23 24 24 24 26 26 26 30 33 34 34 33 33 33 32 30 30 30 30 31 31 34 37 35 31 29 30 30 30 31 31 30 29 28 27 26 26
2 2 2 2 4 4 5 8 8 7 6 9 13 11 9 4 2 5 8 8 8 9 10 9 9 8 8 8 7 9 11 11 13 12 12 11 10 12 12 12 12 13 13 12 11 11 12 13 14 15 15 15 14 15 16 18 19 20 21 22 21 21 22 23 25 25 25 27 30 33 33 33 33 33 32 29 28 28 27 28 29 32 34 33 29 26 26 26 27 29 29 29 29 28 28 27 26
2 1 3 5 6 6 8 8 9 7 6 10 13 8 5 4 6 9 9 9 9 10 10 9 8 7 7 7 6 7 9 11 11 11 12 11 10 10 11 10 10 11 11 11 10 10 10 10 11 12 13 14 14 13 14 15 16 17 19 20 20 19 20 21 22 23 24 24 27 30 31 31 32 32 32 30 28 28 26 26 26 29 31 29 25 24 24 22 23 27 28 28 28 28 29 28 27
3 4 5 5 6 7 10 9 9 8 7 12 9 2 3 5 8 10 8 9 10 9 9 8 7 7 6 6 5 6 8 10 10 10 11 11 11 10 10 10 9 9 9 9 10 10 9 9 9 10 11 12 13 12 12 12 12 14 16 17 18 18 18 19 19 19 21 22 24 27 28 28 29 30 30 29 28 28 27 26 26 28 30 27 23 22 21 20 21 25 27 27 27 27 27 27 27
3 5 4 4 4 4 10 10 11 9 7 12 7 2 3 6 8 9 7 10 11 9 8 8 7 6 6 6 6 5 7 10 10 10 10 10 10 10 10 9 8 8 8 8 9 9 10 9 9 9 10 11 12 11 11 12 11 12 14 16 16 16 17 18 18 17 18 21 23 25 26 26 27 28 28 28 27 27 26 25 25 27 29 26 23 20 19 19 20 23 25 25 26 26 25 25 25
4 4 3 5 4 2 8 9 10 9 7 10 7 1 3 7 9 9 8 10 10 9 8 8 7 7 7 6 6 5 7 10 11 10 9 10 9 9 9 8 8 7 7 7 7 8 9 10 10 9 8 9 11 12 12 13 13 12 14 15 15 15 16 17 17 15 16 20 22 24 24 24 25 27 27 27 25 25 25 22 23 25 26 25 23 20 18 18 20 21 22 23 24 25 24 25 25
4 4 3 5 5 3 5 6 9 9 8 9 8 2 3 6 9 9 8 10 10 8 8 8 8 8 7 6 6 5 6 8 9 10 9 9 8 8 8 8 7 7 6 6 5 5 6 7 9 9 9 9 10 12 12 12 13 12 13 13 14 14 14 16 16 13 14 17 20 23 23 22 23 25 26 25 24 24 23 21 21 22 23 23 21 20 18 18 20 20 21 21 21 22 23 25 24
4 5 5 5 6 5 5 6 7 9 9 8 8 2 5 8 10 9 8 9 9 8 8 8 7 7 6 6 6 6 6 6 7 10 10 9 8 8 8 7 6 6 5 5 4 4 4 5 7 9 9 9 10 11 11 11 11 12 12 11 12 13 12 15 16 13 14 16 18 21 21 20 21 23 24 24 23 23 22 20 19 19 20 20 19 18 17 17 20 20 20 21 20 19 21 23 23
2 4 4 6 7 7 7 7 7 9 7 7 7 4 7 10 10 8 8 7 8 8 7 7 7 7 6 6 6 7 7 6 8 11 11 10 9 8 7 6 5 4 4 3 4 4 4 4 5 7 8 8 8 10 10 10 10 11 12 11 12 13 12 14 14 13 16 17 18 20 20 18 19 21 22 23 22 22 21 19 18 17 18 18 18 18 16 17 19 19 20 21 19 18 18 20 21
4 1 3 4 4 2 5 6 7 9 7 6 7 8 8 10 9 8 8 6 7 8 7 6 7 7 6 6 6 7 7 6 11 13 11 11 10 9 7 6 5 4 3 2 2 2 3 4 4 5 6 7 7 9 10 10 10 12 13 12 12 13 14 15 13 13 17 18 19 20 19 16 17 19 19 22 22 21 19 18 17 16 16 16 17 17 15 15 17 18 19 20 20 19 18 19 20
4 3 4 5 2 2 6 7 5 6 4 2 5 9 9 10 9 9 8 6 6 8 8 7 7 7 6 7 7 7 7 8 13 14 12 11 10 9 8 7 6 5 4 3 2 1 2 2 3 4 5 6 6 7 9 10 10 12 13 12 13 14 15 15 14 17 19 19 19 19 17 15 15 17 18 21 23 20 18 17 17 16 15 15 16 15 14 13 15 16 18 19 19 19 19 19 21
4 4 4 5 4 2 5 5 4 2 1 4 8 10 8 8 9 8 8 7 7 8 9 8 8 7 6 7 8 7 6 8 12 13 12 11 10 10 9 8 7 7 6 5 3 2 1 1 1 2 4 5 5 6 8 9 10 12 12 12 13 14 16 17 18 21 21 19 18 18 17 15 14 14 15 20 22 19 17 17 16 16 15 15 16 14 12 12 13 15 17 18 17 17 17 17 21
3 3 4 5 1 4 4 2 4 3 1 4 9 8 6 8 9 8 9 8 7 7 8 8 8 8 7 7 8 7 6 7 9 10 12 13 12 12 11 9 9 8 7 6 5 4 3 2 1 2 4 5 5 5 7 8 9 11 11 11 13 16 17 18 18 20 19 18 19 19 19 16 13 13 15 19 20 16 15 16 15 15 15 15 15 14 12 11 12 13 15 15 15 16 15 16 18
3 4 4 3 3 3 1 1 4 3 1 2 7 6 4 6 7 7 9 8 6 7 8 8 8 8 8 7 7 8 8 8 8 9 12 15 14 14 13 11 10 9 7 7 7 6 4 2 1 2 3 5 4 5 6 7 10 10 10 11 13 16 16 16 17 17 16 18 20 20 19 18 17 16 16 18 17 15 14 14 15 15 15 14 13 13 11 10 11 12 14 13 14 14 14 15 16
5 6 4 2 3 1 2 4 4 2 2 1 6 4 2 6 7 7 7 7 6 6 6 6 6 6 7 7 7 8 8 8 8 8 10 14 15 15 15 13 12 11 9 9 8 6 4 2 1 2 3 4 4 4 5 8 10 10 11 13 16 16 15 15 16 17 18 19 19 19 19 21 22 19 19 20 17 14 13 13 15 16 15 14 12 12 11 10 10 11 12 12 12 12 12 13 14
4 3 3 3 1 4 6 7 4 2 2 4 6 2 2 5 7 7 7 6 6 5 5 6 5 5 5 6 7 7 7 7 8 9 11 15 16 16 16 15 13 12 11 10 8 6 4 2 1 1 2 3 3 4 6 8 9 10 13 15 17 17 16 16 17 19 21 21 21 21 21 21 21 20 22 23 19 15 12 12 14 16 15 13 11 12 11 10 10 10 10 11 11 10 10 11 11
3 2 5 6 3 6 8 7 4 2 2 5 8 4 1 3 6 8 8 7 7 7 7 7 6 6 5 5 5 6 7 7 7 9 12 15 16 16 16 16 14 13 11 9 7 6 4 3 2 1 1 2 2 3 6 8 9 11 12 14 15 15 16 17 18 20 21 22 22 22 21 21 21 22 23 24 21 17 13 11 14 15 14 13 12 12 12 10 10 11 10 10 10 9 8 8 9
2 3 5 4 1 3 6 6 4 3 0 3 7 5 1 2 4 8 10 8 8 8 8 8 8 7 7 6 6 6 6 7 6 7 9 13 16 16 15 14 14 12 10 9 7 5 4 3 3 1 1 1 2 4 6 7 9 10 11 12 13 13 16 18 20 21 21 22 22 21 21 21 22 22 22 23 23 19 16 13 13 14 14 13 12 12 12 10 12 13 12 10 9 9 8 7 8
2 1 3 3 1 1 1 3 4 4 2 1 5 5 1 1 2 6 8 8 8 10 10 9 9 9 8 8 8 7 7 7 7 7 8 11 14 15 15 13 11 10 10 8 7 5 5 4 3 2 2 2 2 4 6 7 8 9 10 12 13 14 16 18 20 21 21 20 20 20 20 20 20 21 21 21 23 22 18 15 12 12 14 14 13 13 11 11 13 14 13 11 10 10 9 6 8
2 1 0 1 1 1 1 3 4 4 4 4 6 7 3 1 3 5 6 6 8 9 8 8 9 9 9 8 9 8 7 7 7 8 10 12 13 14 15 13 9 10 9 7 6 5 5 6 4 3 2 2 3 5 7 7 7 8 10 11 13 15 17 18 20 19 18 18 19 20 20 19 19 19 20 19 21 22 18 15 13 12 14 15 14 13 12 13 15 14 12 12 11 13 11 7 9
3 2 2 2 3 3 3 4 3 3 4 4 4 8 5 2 4 7 6 6 8 9 7 8 9 9 9 7 7 6 6 5 5 6 8 9 11 12 13 11 10 10 9 8 7 7 7 7 6 4 3 3 5 6 6 6 7 8 10 11 14 16 17 19 19 18 17 18 19 19 19 19 19 18 19 18 18 20 19 14 13 13 14 14 14 13 13 14 15 12 11 12 12 14 13 10 11
1 2 3 3 2 2 2 2 2 2 3 2 2 2 3 3 3 6 6 5 9 10 9 11 11 9 7 6 5 5 4 4 4 4 4 6 8 10 11 11 11 11 10 9 9 9 8 8 6 5 4 5 6 6 6 6 7 8 11 13 14 16 17 17 16 16 17 18 18 18 18 18 19 19 19 18 17 18 18 17 15 13 13 14 14 14 15 15 15 13 13 14 14 15 13 12 12
2 2 2 2 1 1 1 2 3 2 2 1 3 4 1 2 2 4 7 7 9 9 8 11 11 9 8 6 5 5 4 4 4 4 4 6 8 9 12 12 12 12 12 11 11 10 10 9 7 7 6 5 6 5 6 6 8 11 13 14 15 15 15 14 14 15 17 17 17 16 17 18 18 18 18 18 18 18 19 19 19 19 18 18 16 15 16 16 16 16 16 16 16 16 16 14 14
2 2 2 2 2 2 3 3 2 2 1 2 3 3 0 1 2 1 6 7 8 9 8 9 10 9 8 7 6 5 5 4 4 5 4 6 8 10 13 14 14 14 13 13 13 12 11 9 8 8 7 6 5 6 7 8 10 12 13 13 14 14 13 12 13 15 15 15 15 15 16 17 16 17 17 18 18 18 19 19 20 21 21 21 20 18 18 18 17 17 18 19 19 19 18 17 16
3 1 1 0 1 2 2 1 1 0 1 0 0 1 1 2 1 3 5 5 5 7 8 8 8 8 7 6 6 6 5 5 5 5 5 8 10 11 13 15 15 15 15 14 13 12 11 10 9 8 8 7 6 8 8 9 11 13 13 13 13 12 12 13 13 13 13 14 15 15 15 15 15 16 16 16 17 17 18 18 19 19 21 22 21 21 20 20 20 20 20 21 21 21 21 20 18
2 2 3 1 1 1 1 0 0 1 1 1 2 1 0 1 1 2 5 6 5 6 6 8 7 7 6 6 6 6 6 6 6 6 6 9 12 13 14 15 16 16 16 15 14 13 12 11 10 9 8 7 8 9 9 10 12 13 13 13 12 12 12 12 12 12 13 14 14 14 14 15 16 16 16 16 17 17 18 19 19 19 19 20 21 21 21 22 22 22 22 22 22 22 22 22 20
2 2 1 2 2 1 1 1 1 2 1 2 3 3 2 1 2 2 4 4 4 5 5 7 7 7 7 6 6 6 6 6 7 6 7 10 13 14 15 16 16 17 16 16 15 14 13 12 10 9 8 8 9 9 10 12 13 13 13 13 12 12 12 11 12 13 13 13 13 13 14 15 16 16 16 17 18 18 19 19 19 19 19 20 20 20 21 22 23 23 22 22 22 22 21 21 20
1 1 1 2 2 1 1 1 1 0 3 3 4 5 3 3 2 3 6 7 8 8 7 8 8 8 8 7 7 8 8 7 7 7 8 11 14 15 16 17 17 18 17 16 15 14 13 12 10 9 9 9 9 10 11 12 12 13 13 12 12 12 11 11 12 13 13 14 13 13 14 15 15 16 16 18 19 19 20 19 19 19 19 20 20 20 20 21 23 24 23 23 23 22 21 21 20
1 1 1 1 0 1 0 1 1 2 3 3 2 2 3 5 4 6 10 12 12 11 10 10 10 10 9 8 9 9 8 8 7 7 7 10 15 17 17 18 17 17 17 16 15 14 13 12 10 10 10 10 10 11 12 12 12 13 13 13 12 12 12 11 12 13 14 14 14 13 14 15 15 16 16 17 18 19 19 19 19 20 20 20 20 20 20 20 22 23 23 23 23 22 21 21 20
1 0 0 2 2 1 1 1 1 1 2 4 2 0 1 4 5 10 14 14 14 13 12 12 12 12 10 9 9 9 8 8 7 7 7 9 15 18 18 19 19 18 17 15 15 14 14 13 11 11 11 11 11 11 12 12 12 12 13 13 13 13 13 13 13 14 14 14 14 14 14 14 15 16 17 17 18 18 18 19 19 20 21 21 21 21 20 20 20 21 22 23 23 22 21 20 19
0 1 2 1 1 0 1 1 1 1 2 3 2 2 4 4 3 10 14 14 15 15 14 13 12 12 11 10 9 9 8 8 8 8 7 10 15 18 19 20 19 17 17 16 15 15 14 13 12 12 12 12 12 12 12 12 12 12 13 14 13 13 14 14 14 14 15 14 14 14 15 15 16 16 16 17 17 17 17 18 19 20 21 21 21 21 21 20 20 19 20 22 23 22 21 19 18
1 1 1 0 1 2 1 2 0 1 1 2 2 4 6 3 3 7 10 11 14 15 14 13 12 12 12 10 10 10 9 9 9 8 8 11 16 17 18 19 18 17 17 16 16 16 15 14 13 12 12 12 12 12 12 12 12 13 14 14 13 14 14 14 15 15 16 16 15 15 15 16 16 16 16 16 16 16 17 17 18 19 20 20 20 21 20 21 21 21 20 20 20 18 17 16 16
Wind_Direction
316 314 312 303 292 287 272 245 248 217 229 260 257 250 127 98 112 114 119 120 85 56 59 53 55 54 82 102 112 97 45 53 35 357 116 15 189 6 12 7 2 15 16 20 3 355 15 26 29 24 23 24 18 16 21 21 17 16 17 14 7 359 358 357 351 345 338 329 323 321 323 325 327 329 327 326 325 321 311 300 294 298 302 298 304 308 310 317 318 319 324 326 321 316 314 311 310
315 313 305 288 264 267 264 195 247 240 213 242 263 263 128 125 146 114 105 108 95 91 87 76 78 80 105 118 121 96 45 39 27 62 75 11 188 360 11 7 3 18 16 21 5 355 14 25 30 28 21 21 18 15 20 21 18 16 14 12 4 0 1 356 350 346 338 329 323 319 316 315 318 320 323 324 326 327 323 313 300 296 301 300 301 310 315 321 320 322 330 336 333 327 322 311 308
310 312 304 292 244 230 276 218 243 261 235 241 311 93 149 149 122 96 89 99 102 105 101 89 78 69 121 111 62 64 61 41 23 37 53 31 50 349 1 4 8 19 16 25 10 358 15 24 26 27 22 21 18 18 20 20 19 16 12 10 6 4 3 357 353 348 338 332 330 323 316 312 315 315 316 321 323 324 324 321 311 298 297 300 298 306 322 331 327 325 333 340 341 341 342 339 330
306 309 295 294 254 213 259 232 238 263 260 261 51 276 240 72 83 91 95 101 111 117 107 99 67 16 68 79 49 72 76 74 43 28 50 32 8 342 354 4 13 20 19 29 15 5 19 24 25 25 23 23 20 21 21 19 20 16 12 11 10 8 5 1 358 352 343 338 335 329 322 314 315 318 314 315 318 319 322 320 316 301 290 292 291 304 331 344 343 340 340 336 334 344 1 9 1
302 296 271 271 285 236 265 246 240 247 260 279 50 320 62 87 92 97 108 109 119 120 105 108 85 54 65 58 16 70 47 107 68 40 46 14 357 352 359 10 18 23 24 29 19 12 23 25 26 26 25 25 21 23 22 21 22 19 16 14 14 11 8 9 7 2 357 353 348 342 336 327 317 318 315 316 319 319 319 316 318 309 284 279 276 309 336 344 353 8 16 8 358 13 27 23 16
299 289 254 237 265 294 276 258 244 235 264 296 226 110 95 103 110 111 113 104 88 77 81 87 102 106 80 58 49 57 16 352 76 38 24 354 360 9 11 20 25 25 27 31 24 16 25 28 26 28 26 27 24 25 25 24 25 23 21 19 18 16 14 19 21 18 16 14 10 5 358 353 340 334 334 334 337 335 332 326 327 329 291 302 325 339 354 1 12 30 32 32 38 46 46 24 20
298 299 244 220 242 244 248 254 252 246 318 327 353 125 127 117 119 121 119 108 81 67 73 86 113 109 92 122 87 54 39 38 68 38 12 358 10 22 23 28 29 29 29 31 29 18 24 29 28 29 28 28 28 28 28 29 29 28 26 24 24 23 23 28 30 31 33 34 32 29 25 22 15 14 18 17 19 16 11 8 21 49 19 23 36 25 24 22 23 29 28 33 39 45 41 18 17
278 288 283 249 250 218 246 258 259 252 34 23 40 44 120 125 132 136 133 122 107 96 104 123 113 96 83 100 98 64 49 46 60 43 17 20 27 31 31 32 33 31 30 32 33 23 24 29 31 31 31 32 32 33 34 34 34 32 30 28 28 29 30 33 33 36 39 43 46 47 46 46 45 46 51 50 50 47 46 55 59 56 48 44 41 37 33 21 18 20 23 29 34 36 25 9 3
258 238 267 274 259 238 249 257 262 209 138 115 78 55 96 126 143 141 139 113 102 90 91 125 111 98 95 78 87 96 51 40 48 41 28 35 39 40 38 36 35 32 33 34 33 30 25 30 37 34 34 36 37 39 38 38 37 35 34 31 31 32 34 36 36 37 40 42 45 48 50 52 51 49 50 47 47 45 43 49 51 46 41 34 29 27 20 14 16 17 17 22 39 31 15 11 7
248 216 265 282 268 259 253 249 257 150 120 101 91 87 95 131 144 133 130 104 95 75 46 66 92 104 108 88 88 94 58 49 45 40 34 41 51 51 45 39 39 36 37 36 37 39 29 33 45 41 41 44 42 41 40 41 42 42 41 38 37 37 38 41 42 40 40 42 42 43 44 46 46 45 43 38 35 32 30 32 34 34 30 25 22 17 9 5 7 9 7 9 17 9 8 4 355
254 209 219 289 268 254 258 247 245 114 112 103 90 88 103 142 143 121 107 103 86 71 31 31 88 102 99 93 93 111 90 62 46 41 39 47 57 57 53 45 43 42 43 41 40 44 36 37 48 48 50 52 49 49 50 51 51 50 48 44 42 43 44 45 47 45 42 42 41 41 40 41 42 41 39 36 34 32 30 27 25 25 21 16 12 8 6 1 357 357 357 356 336 321 335 337 335
271 232 185 233 257 249 264 270 278 100 114 124 111 99 143 146 146 132 111 108 93 79 32 4 110 122 100 98 120 127 90 56 43 41 43 49 54 59 61 53 49 47 47 47 46 48 46 44 49 52 55 56 56 57 57 57 57 55 54 51 48 47 48 47 48 48 45 41 41 43 42 41 40 38 36 34 33 33 34 31 27 25 21 16 11 7 7 2 354 350 348 341 319 310 320 324 333
251 266 241 237 257 268 277 296 320 108 127 128 113 80 86 85 49 129 112 89 77 84 38 0 76 125 98 112 126 120 76 47 39 42 47 55 60 69 69 58 53 51 50 52 52 51 52 52 53 56 60 61 60 60 59 58 58 57 56 55 53 51 50 50 49 49 48 46 43 44 44 42 39 37 32 30 29 30 32 31 28 26 22 19 16 12 9 4 355 343 334 317 310 313 317 321 337
264 275 287 269 274 276 285 301 304 295 110 98 102 70 63 55 32 82 99 79 52 56 70 15 5 112 107 131 129 100 61 39 37 63 76 76 78 76 69 61 55 54 53 54 55 55 56 58 57 58 62 63 61 60 60 59 59 58 57 56 55 53 52 51 51 50 50 49 46 45 45 44 42 39 35 32 29 27 25 24 24 22 18 18 18 17 12 6 359 345 330 313 317 319 317 327 339
289 294 291 276 284 272 275 258 276 295 104 99 104 89 73 45 38 63 68 92 62 19 83 28 4 101 111 128 115 69 46 33 47 93 100 92 84 73 68 64 58 55 54 55 56 57 59 59 58 57 61 63 61 60 60 61 61 60 58 57 55 54 53 52 51 51 50 50 48 46 45 44 43 41 39 36 33 31 29 25 22 19 15 14 15 15 12 7 3 357 344 324 322 324 318 326 334
236 297 289 251 271 270 260 223 234 283 109 109 110 98 79 49 44 59 47 94 88 32 51 35 19 61 67 75 92 76 54 47 90 118 119 105 85 72 67 64 61 56 53 54 55 56 58 58 58 57 59 62 61 59 59 61 61 60 59 58 56 54 53 52 52 51 50 49 47 46 44 43 42 40 39 38 37 35 33 30 26 22 17 13 11 9 8 6 5 2 355 342 330 323 317 320 328
212 269 265 249 255 258 285 275 210 135 112 121 130 107 96 82 64 80 69 75 90 66 63 58 56 68 70 80 87 80 72 74 102 116 114 100 85 74 66 63 63 58 52 52 52 52 54 55 58 58 57 58 59 58 59 59 58 57 56 55 54 54 52 51 51 50 49 49 47 45 44 42 41 39 37 37 37 35 34 32 30 28 24 20 14 7 4 5 6 3 3 1 349 328 316 319 323
206 237 237 249 257 256 334 5 61 123 130 143 150 118 107 117 109 109 86 75 88 85 78 76 75 75 77 86 86 81 81 81 90 96 92 85 83 79 69 64 63 59 54 50 49 50 51 51 54 56 54 53 55 56 56 55 55 54 53 52 52 52 50 48 48 48 48 47 46 45 43 42 41 39 36 35 35 34 33 32 31 30 29 27 23 15 9 6 6 3 5 9 1 347 336 333 327
215 261 252 252 272 349 18 32 41 64 133 134 118 114 112 127 136 131 111 101 98 88 88 87 81 82 82 84 83 81 81 82 84 87 87 83 83 84 79 71 65 60 55 51 49 49 51 50 50 51 51 50 50 51 51 51 53 53 52 51 50 50 48 46 46 45 44 44 43 42 41 40 39 38 36 35 33 32 31 30 29 27 26 26 25 23 18 12 7 3 2 3 2 2 359 351 340
216 235 250 264 327 37 53 56 44 43 118 109 87 96 96 101 124 133 114 96 83 79 89 98 92 91 90 87 85 84 83 83 85 86 87 85 82 81 80 75 69 64 59 55 52 51 52 52 50 49 50 51 50 48 49 50 50 52 52 50 49 49 48 46 45 44 42 41 40 39 37 36 35 34 34 33 32 30 28 27 27 25 22 21 21 20 20 18 11 5 3 0 357 358 358 355 349
231 221 252 293 359 12 64 65 48 35 99 104 99 91 81 62 33 92 121 97 76 71 71 94 104 105 102 98 93 91 88 86 86 87 87 87 85 82 80 77 73 70 65 60 54 52 51 51 50 48 49 51 50 48 49 49 48 49 50 49 48 48 47 46 44 43 41 40 40 38 36 34 33 31 30 30 30 28 27 25 24 23 21 19 17 15 15 16 13 9 6 4 1 357 353 349 345
303 271 276 296 339 358 68 66 33 13 105 115 115 97 89 75 39 40 91 99 98 88 82 92 101 106 107 106 101 97 93 90 86 86 86 86 87 85 83 80 75 71 66 61 55 52 50 50 50 50 50 51 51 51 49 49 48 47 46 46 45 44 44 44 43 42 40 39 38 37 35 34 32 30 29 28 26 25 25 24 23 21 20 19 17 14 13 11 11 9 7 6 4 0 356 351 345
291 260 281 314 351 22 72 68 14 355 112 117 111 101 99 95 67 46 62 83 98 94 97 96 97 104 108 108 103 99 94 92 89 86 86 85 84 84 82 79 75 70 66 61 56 53 51 50 52 52 54 53 54 53 51 49 48 47 47 45 43 41 40 41 40 40 39 38 37 36 35 33 31 30 28 27 25 24 22 21 20 19 18 17 16 15 13 10 8 6 5 3 1 360 358 354 348
273 272 294 15 42 64 79 75 60 54 88 106 110 110 106 103 93 68 73 86 99 99 105 106 107 107 106 106 100 99 96 93 91 88 87 86 85 85 83 81 77 73 68 63 58 54 51 51 53 55 55 54 54 52 51 50 47 47 48 46 45 41 40 39 37 36 36 36 36 35 34 33 31 29 29 27 25 23 22 19 18 17 15 13 13 14 13 10 7 4 1 360 359 357 355 353 351
222 256 279 85 89 101 99 92 92 85 92 98 93 87 84 98 98 84 89 102 107 110 116 115 115 111 107 107 102 101 99 96 95 92 90 88 89 87 84 82 78 73 68 63 60 56 52 52 54 55 53 51 52 52 51 50 48 47 47 47 45 42 42 40 37 35 34 35 35 33 33 32 29 28 27 27 24 22 20 19 17 15 13 11 10 10 9 7 6 4 0 358 356 354 352 350 348
225 250 244 162 143 123 121 117 107 101 109 98 90 89 96 109 98 81 97 115 120 126 123 122 119 113 110 110 109 108 105 102 101 98 95 92 90 87 83 81 76 72 70 66 62 58 55 54 53 55 54 52 51 53 52 50 48 46 47 48 44 42 41 40 38 36 32 32 33 33 32 32 29 27 26 25 22 19 17 16 14 13 12 10 9 6 3 3 3 3 1 358 355 353 351 348 345
332 292 285 195 150 141 149 134 124 119 126 116 106 113 130 147 122 84 129 135 136 138 129 130 122 116 116 111 111 111 110 110 109 107 101 96 91 89 85 80 76 72 71 68 64 61 58 55 53 54 57 56 52 53 53 51 49 46 46 49 45 40 38 37 36 35 30 28 29 29 30 30 29 27 26 24 20 17 15 13 11 10 9 9 10 4 360 360 359 360 359 357 356 352 350 347 345
333 334 308 214 156 170 178 149 143 134 128 125 115 121 143 148 47 115 147 153 149 143 135 136 127 122 121 116 114 111 111 111 110 108 102 97 93 93 91 86 82 76 71 68 66 64 60 57 54 52 53 56 53 51 50 51 51 47 45 48 47 40 36 35 33 33 30 25 23 24 25 25 25 24 24 23 19 16 14 11 8 6 6 7 7 3 1 0 355 355 356 355 354 351 349 347 345
260 213 242 216 192 207 196 165 161 159 138 134 122 122 139 85 94 129 147 156 153 145 140 138 132 129 126 123 121 113 113 110 105 101 99 101 100 97 95 93 92 84 77 71 67 65 61 57 55 51 49 50 51 50 47 46 47 46 44 45 47 42 36 35 33 32 30 25 21 20 21 21 21 19 19 19 17 14 11 8 5 3 4 6 4 0 0 359 351 351 355 354 352 351 349 348 345
229 218 238 225 210 215 198 175 175 179 148 150 151 158 141 96 121 140 151 161 153 147 144 141 138 135 134 130 124 117 116 112 106 106 108 108 106 103 98 97 98 95 88 78 69 65 62 59 55 51 47 45 46 47 45 41 38 36 35 36 41 41 35 32 32 31 27 24 20 17 18 18 17 15 14 15 13 10 8 4 1 359 1 4 3 358 358 357 350 350 354 353 352 350 347 347 344
225 222 226 223 241 213 183 176 177 176 151 165 179 254 171 133 142 152 162 168 156 151 150 146 146 140 139 132 128 126 118 116 116 117 118 115 112 108 105 101 100 99 95 86 76 70 66 62 58 50 46 42 39 38 36 33 29 21 19 23 27 29 29 26 24 24 21 18 15 14 14 13 12 11 10 10 9 7 5 1 358 357 358 1 360 357 356 354 351 352 355 354 351 350 346 344 341
215 223 213 212 241 191 163 175 183 171 159 186 189 94 153 147 154 162 170 175 163 156 153 152 151 146 146 139 134 130 121 124 126 126 124 121 117 112 110 106 105 104 100 94 84 75 66 59 57 49 42 38 33 33 31 27 26 17 11 16 18 16 17 16 15 16 12 8 8 8 9 9 6 5 6 5 4 3 2 358 353 353 356 357 356 356 354 351 351 352 356 357 351 348 345 342 341
207 214 221 212 210 186 164 185 195 169 150 195 209 171 115 146 160 165 178 185 169 157 157 157 155 152 151 146 143 136 133 135 136 139 135 129 127 123 121 115 110 107 102 98 87 76 61 50 49 45 39 35 33 31 32 30 26 21 13 13 13 8 6 5 4 5 1 357 358 359 2 4 0 360 1 0 359 357 358 354 349 349 353 355 354 354 352 348 350 352 355 358 353 347 344 340 340
207 208 230 241 215 185 158 171 191 166 147 188 214 175 91 131 154 163 183 192 173 161 163 160 157 159 157 151 150 146 151 153 149 152 149 144 142 138 136 130 123 114 105 96 83 71 55 45 40 39 39 36 33 27 27 27 21 19 14 8 6 4 357 354 355 354 349 343 342 346 352 355 354 354 355 355 354 352 353 350 346 346 348 352 352 353 351 345 350 353 352 355 356 349 342 340 340
233 200 212 251 236 200 164 155 168 163 159 186 186 128 107 133 150 163 181 197 183 165 163 163 162 165 162 157 157 158 162 162 159 161 157 152 151 150 149 146 142 133 121 103 88 71 53 45 32 34 37 36 34 28 22 16 11 10 8 4 359 0 353 346 348 344 339 333 327 331 339 343 345 348 350 352 349 346 348 347 345 345 344 348 350 350 350 344 348 353 351 354 356 351 346 342 339
325 274 228 267 271 198 138 135 152 159 170 207 178 138 135 148 157 167 175 196 193 168 164 168 169 171 166 166 168 165 168 165 159 161 161 159 161 163 163 164 163 159 155 142 112 82 59 46 32 33 34 30 27 29 23 10 5 0 358 356 350 351 349 343 341 335 330 325 318 319 326 331 335 340 346 349 346 341 343 343 344 343 341 344 346 349 349 344 346 350 351 354 352 350 352 348 341
326 309 289 284 291 82 115 126 141 156 166 195 133 126 141 154 162 168 170 191 199 175 170 175 177 176 172 175 175 171 174 158 151 159 168 170 171 174 176 179 180 182 185 183 178 145 65 38 37 35 26 18 13 20 21 10 1 353 347 344 340 339 340 336 330 327 323 314 313 314 316 318 320 329 339 344 341 336 336 339 341 341 338 339 342 347 345 338 342 345 347 353 353 350 351 350 345
305 290 294 282 270 99 110 127 140 164 157 120 113 119 142 155 162 168 169 187 200 183 175 180 182 178 178 180 177 176 169 144 147 162 176 180 180 183 188 192 199 206 202 192 189 203 244 266 41 29 12 4 357 358 8 8 357 347 340 333 334 333 333 332 325 326 322 311 312 314 308 301 300 313 327 336 336 331 330 333 336 336 334 334 336 341 339 333 335 339 344 350 352 351 348 348 350
292 268 259 274 246 103 82 102 165 175 133 135 132 124 140 154 160 172 177 188 202 188 178 181 182 180 184 182 177 178 167 147 158 174 181 186 188 190 196 202 209 211 206 205 210 215 220 222 267 358 355 348 341 338 353 360 347 343 339 331 333 330 326 326 323 326 327 321 322 322 312 298 291 298 309 321 327 325 321 323 327 328 327 328 329 332 332 330 330 332 341 347 348 349 346 347 354
255 241 253 259 157 146 116 171 193 174 55 150 140 121 128 152 159 173 183 192 195 185 182 182 182 184 187 184 178 179 175 165 172 184 184 188 192 194 201 208 212 209 209 220 221 214 207 211 278 327 341 336 332 331 342 347 339 339 336 327 327 325 322 322 322 324 326 324 324 323 318 311 302 298 299 304 309 313 311 312 318 319 320 321 321 323 323 323 324 325 335 342 345 346 344 343 352
233 220 245 253 161 133 91 140 164 93 355 225 141 126 165 166 169 177 181 191 188 172 177 182 182 186 185 181 178 181 184 174 175 190 190 189 194 196 201 209 212 207 214 226 220 210 205 195 276 321 329 325 326 325 332 340 339 338 334 329 328 326 324 326 327 326 324 323 321 319 318 314 308 303 302 295 287 294 302 305 311 311 313 314 310 311 311 311 312 316 326 333 340 343 338 337 344
254 221 291 335 78 84 100 133 141 111 267 219 166 186 230 164 176 181 168 180 184 166 177 192 189 192 191 185 183 183 188 182 181 192 192 192 195 196 200 207 207 209 223 226 208 193 188 181 235 308 314 315 316 314 330 342 342 337 333 332 330 328 329 330 330 327 324 322 320 318 316 314 310 306 305 297 280 273 283 298 304 303 304 304 301 302 301 300 299 306 316 322 330 334 329 331 336
285 297 334 349 48 105 129 153 163 169 231 195 184 212 276 174 191 177 162 178 186 176 186 197 192 191 195 198 196 187 189 191 190 193 194 193 194 195 199 202 205 215 218 200 176 172 177 181 198 217 276 306 305 312 335 342 338 334 330 328 326 326 327 327 325 324 321 319 317 316 316 316 315 311 310 307 293 271 263 283 295 293 295 296 294 295 296 291 286 295 304 308 317 320 322 322 321
250 299 326 340 47 123 156 175 204 232 16 153 192 210 291 239 187 156 160 177 183 183 192 196 191 190 191 197 203 196 195 197 194 198 200 194 192 195 199 203 207 209 194 170 164 172 172 173 182 194 241 266 283 316 336 335 329 330 327 324 324 325 324 321 320 319 318 316 316 317 318 318 317 316 316 316 312 293 267 273 289 284 284 293 290 288 290 280 276 289 296 296 300 299 306 305 300
165 290 338 354 351 321 210 194 224 254 265 213 203 198 231 253 139 143 163 178 187 190 191 190 187 189 190 193 198 200 200 198 195 200 205 202 197 193 198 207 203 183 169 168 175 177 173 181 189 195 224 236 267 312 326 322 322 324 323 322 319 319 319 316 316 317 316 317 318 319 319 319 319 320 322 322 325 317 286 268 281 281 280 291 289 283 281 271 276 289 292 291 288 288 297 289 284
136 185 297 339 259 254 263 225 245 262 250 247 207 189 206 232 166 169 175 189 199 191 182 183 184 186 189 189 191 194 194 192 194 194 199 204 201 196 201 203 180 162 170 178 180 181 184 191 193 194 219 245 273 303 313 311 313 317 319 319 316 317 317 316 316 316 318 320 321 321 321 322 322 323 325 323 326 331 314 281 276 283 287 295 292 281 274 274 283 288 284 286 284 285 292 278 274
129 173 209 218 215 200 211 220 235 256 251 266 212 178 190 243 191 181 189 194 183 172 167 173 178 180 181 177 175 175 174 177 180 184 194 202 203 202 200 186 159 160 175 180 182 185 186 193 195 197 219 254 276 292 299 298 304 313 319 318 316 317 317 317 317 317 321 324 322 322 323 325 327 325 326 325 324 332 334 317 294 286 288 292 290 283 279 282 286 281 274 281 282 281 282 274 276
156 239 241 230 214 182 217 211 188 235 243 289 3 118 180 240 217 187 196 177 158 163 168 167 167 167 160 147 143 142 144 150 147 159 183 200 207 197 177 166 161 166 173 179 185 189 192 197 199 206 230 259 271 278 287 294 305 315 317 317 315 315 315 314 315 319 324 323 320 321 324 327 327 325 324 327 327 326 331 332 323 312 305 298 290 285 284 284 282 276 276 282 281 277 273 272 276
217 241 240 243 236 183 216 193 174 220 236 64 13 358 254 245 291 184 177 162 153 157 158 157 156 153 145 140 141 137 137 139 141 161 177 192 206 187 164 166 173 173 177 183 187 192 196 200 206 218 237 256 264 270 286 293 304 314 314 312 310 310 309 308 312 318 318 316 317 322 326 325 323 323 323 324 324 321 321 323 322 320 321 316 307 295 288 285 283 280 280 281 280 275 269 267 265
203 218 215 224 245 256 240 218 198 196 141 33 9 359 325 239 336 117 140 141 145 144 146 153 150 147 146 145 143 143 151 159 164 174 176 186 199 185 170 176 180 179 186 188 189 194 197 202 212 225 237 247 260 278 289 293 303 311 308 304 304 303 303 303 307 310 309 312 317 319 319 317 316 318 319 319 319 317 317 317 315 313 312 313 312 304 291 285 284 282 280 279 278 276 272 266 259
222 215 62 10 263 277 259 248 305 157 113 80 309 5 230 202 328 40 73 78 98 118 133 138 134 137 138 137 144 153 165 173 175 179 187 191 194 185 176 181 184 187 191 191 193 197 199 205 213 223 234 242 268 287 289 293 302 304 299 297 298 295 294 298 301 302 304 308 312 312 311 312 313 313 314 316 316 315 314 313 312 309 306 305 306 304 296 286 283 282 280 277 276 276 273 266 257
265 56 60 344 282 303 312 178 324 27 30 238 202 205 116 137 327 28 65 67 77 93 113 123 129 134 134 146 163 172 177 183 183 188 193 189 188 186 181 185 189 191 192 193 196 199 202 209 215 224 236 252 278 287 285 292 298 296 292 292 291 288 289 294 297 297 300 303 305 307 309 310 312 313 314 315 314 313 312 310 309 307 305 303 302 303 301 294 287 282 279 277 274 275 274 268 259
333 27 54 267 275 1 348 253 116 87 297 253 194 186 107 89 260 174 129 122 133 138 139 144 152 152 155 174 186 187 188 188 189 193 193 186 185 187 187 190 192 192 194 197 200 203 207 212 218 228 244 264 277 279 280 289 292 288 288 288 285 283 285 289 294 295 297 300 301 303 307 310 311 313 315 315 313 312 310 309 308 306 305 304 301 300 300 299 293 284 279 275 272 272 274 275 269
327 336 251 269 289 30 81 261 327 217 252 248 189 195 184 173 212 164 166 182 182 179 178 174 174 173 180 193 193 192 190 189 192 193 193 190 188 190 193 195 195 196 198 201 203 207 212 218 225 234 248 261 267 272 280 285 285 284 285 285 282 282 283 286 290 293 294 296 298 302 306 308 310 312 314 314 313 312 311 310 309 307 306 304 301 298 295 295 294 289 281 274 272 273 274 276 276
197 212 241 101 69 327 98 154 306 262 262 280 225 203 201 196 184 174 191 198 190 186 187 188 188 186 190 197 194 191 188 188 194 194 194 194 192 194 196 196 197 198 199 202 206 210 215 221 227 235 248 259 265 272 277 279 280 282 282 282 280 281 284 285 287 290 292 292 296 301 303 304 307 310 312 313 313 314 314 314 313 311 308 307 306 303 297 292 289 289 285 277 271 272 273 274 275
273 242 83 99 119 264 256 191 226 247 263 287 299 19 233 230 186 179 194 197 187 187 192 196 196 192 193 196 193 189 187 189 194 194 197 195 195 199 199 197 197 199 202 206 210 212 216 222 227 238 251 259 263 269 273 274 276 278 279 279 278 280 284 283 284 286 289 290 293 298 299 301 305 307 308 309 310 313 316 317 316 314 312 311 309 307 303 298 289 283 283 280 274 270 270 272 276
43 206 173 149 144 57 332 268 201 194 252 268 287 277 256 262 182 180 193 193 187 189 194 197 198 194 194 195 190 187 188 191 194 194 197 197 199 203 201 198 197 199 204 207 209 213 219 224 232 244 251 255 259 266 270 270 273 277 278 278 277 279 284 285 285 284 286 289 292 295 297 299 302 305 307 307 308 311 313 315 315 314 312 310 307 306 306 306 301 290 282 278 273 269 268 269 275
72 242 225 154 154 123 336 288 313 62 258 225 240 270 263 241 181 183 186 186 189 192 192 195 196 194 194 194 190 186 187 192 193 194 195 195 198 199 195 191 192 197 201 206 212 217 222 227 236 245 248 251 258 264 267 269 273 276 277 277 278 281 284 286 287 286 286 289 290 292 295 296 298 301 304 306 308 309 310 312 312 311 310 308 306 305 303 304 304 301 294 285 276 271 272 275 277